Location: Unspecified
(40.7945°N, 111.1337°W)
Time: 09:46:01
(UTC-06:00)

Resurs 1-4 Rocket - Visible Passes

Search period start: 26 April 2017 00:00
Search period end: 06 May 2017 00:00
Orbit: 799 x 815 km, 98.5° (Epoch: 24 April)

Date Brightness Start Highest point End Pass type
(mag) Time Alt. Az. Time Alt. Az. Time Alt. Az.
26 Apr 4.0 02:45:26 10° NE 02:49:14 20° E 02:49:36 20° E visible
26 Apr 2.4 04:24:16 10° N 04:29:19 50° WNW 04:30:41 40° WSW visible
27 Apr 4.6 02:22:47 10° ENE 02:24:23 11° E 02:24:50 11° E visible
27 Apr 2.0 03:59:33 10° NNE 04:04:50 83° WNW 04:05:55 58° SSW visible
27 Apr 4.1 05:42:22 10° NW 05:43:49 11° WNW 05:45:17 10° WNW visible
28 Apr 2.4 03:35:04 10° NNE 03:40:16 59° E 03:41:09 51° SE visible
28 Apr 3.7 05:16:07 10° NNW 05:19:37 18° WNW 05:22:14 13° W visible
29 Apr 3.2 03:10:49 10° NNE 03:15:36 35° E 03:16:22 33° ESE visible
29 Apr 3.1 04:50:50 10° N 04:55:19 29° WNW 04:57:27 22° WSW visible
30 Apr 3.9 02:46:56 10° NE 02:50:51 21° E 02:51:35 20° ESE visible
30 Apr 2.4 04:25:53 10° N 04:30:55 48° WNW 04:32:41 34° WSW visible
01 May 4.5 02:24:06 10° ENE 02:26:01 12° E 02:26:49 12° E visible
01 May 2.0 04:01:10 10° N 04:06:26 80° WNW 04:07:54 49° SSW visible
01 May 4.2 05:44:15 10° NW 05:45:24 11° WNW 05:46:33 10° WNW visible
02 May 2.4 03:36:39 10° NNE 03:41:52 61° E 03:43:08 47° SSE visible
02 May 3.8 05:17:47 10° NNW 05:21:11 18° WNW 05:24:13 11° W visible
03 May 3.2 03:12:22 10° NNE 03:17:13 36° E 03:18:21 33° SE visible
03 May 3.2 04:52:28 10° N 04:56:54 28° WNW 04:59:26 19° WSW visible
04 May 3.9 02:48:28 10° NE 02:52:29 22° E 02:53:34 20° ESE visible
04 May 2.5 04:27:30 10° N 04:32:31 46° WNW 04:34:38 30° WSW visible
05 May 4.5 02:25:27 10° ENE 02:27:39 12° E 02:28:47 12° ESE visible
05 May 2.0 04:02:46 10° N 04:08:02 77° WNW 04:09:52 42° SSW visible
05 May 4.2 05:46:16 10° NW 05:46:58 10° WNW 05:47:40 10° WNW visible
